(152767) = 1987 QN6 = 1999 NP12 = 2003 KM9

Discovered at Socorro on 1999-07-14 by LINEAR.

Orbit

Orbit type: Main Belt

Note: WebGL enabled browser required.

epoch2023-02-25.0
epoch JD2460000.5
perihelion date2020-01-03.44968
perihelion JD2458851.94968
argument of perihelion (°)3.34887
ascending node (°)267.18574
inclination (°)12.25186
eccentricity0.2528592
perihelion distance (AU)1.9143329
Tisserand w.r.t. Jupiter3.4
ΔV w.r.t. Earth (km/sec)9.4
semimajor axis (AU)2.5622117
mean anomaly (°)276.01416
mean daily motion (°/day)0.24031530
aphelion distance (AU)3.210
period (years)4.1
P-vector [x]0.00800160
P-vector [y]-0.92231316
P-vector [z]-0.38636047
Q-vector [x]0.97724702
Q-vector [y]-0.07468313
Q-vector [z]0.19852128
absolute magnitude15.86
phase slope0.15
uncertainty0
referenceMPO 745323
observations used659
oppositions18
arc length (days)13054
first opposition used1987
last opposition used2023
residual rms (arc-secs)0.68
perturbers coarse indicatorM-v
perturbers precise indicator003Ek
first observation date used1987-08-26.0
last observation date used2023-05-23.0
computer nameMPCLINUX
JD of orbit computation2456639.803236
perihelion JD uncertainty (days)1.3174E-04
argument of perihelion uncertainty (°)4.6821E-05
ascending node uncertainty (°)3.8473E-05
inclination uncertainty (°)8.6181E-06
eccentricity uncertainty 8.3491E-08
perihelion distance uncertainty (AU)2.2223E-07
Minimum Orbit Intersection Distances (in AU)
for orbit epoch: 2460000.5, reference: E2023-KC5
Mercury1.45142
Venus1.18771
Earth0.89788
Mars0.44188
Jupiter1.90062
Saturn5.85149
Uranus15.6018
Neptune26.8302

Observations

671 total observations over interval: 1987 08 26.11562 – 2023 05 23.166108
These data are available for download (format description).

Date (UT) J2000 RA J2000 Dec Magn Location Ref
1987 08 26.11562 21 34 22.78 +07 00 38.3 18   809 – European Southern Observatory, La Silla MPC 12297
1987 08 26.22083 21 34 16.98 +07 00 17.7   809 – European Southern Observatory, La Silla MPC 12297
1999 06 15.23956 17 17 55.98 -25 30 52.4 17.9   704 – Lincoln Laboratory ETS, New Mexico MPS 5659
1999 06 15.25174 17 17 55.34 -25 30 44.3 17.9   704 – Lincoln Laboratory ETS, New Mexico MPS 5659
1999 06 15.26387 17 17 54.71 -25 30 34.9 18.6   704 – Lincoln Laboratory ETS, New Mexico MPS 5659
1999 06 15.27605 17 17 54.00 -25 30 26.3 17.8   704 – Lincoln Laboratory ETS, New Mexico MPS 5659
1999 06 15.28819 17 17 53.30 -25 30 17.5 18.1   704 – Lincoln Laboratory ETS, New Mexico MPS 5659
1999 07 14.17186 17 01 23.08 -19 57 54.4 18.4   704 – Lincoln Laboratory ETS, New Mexico MPS 5659
1999 07 14.18446 17 01 22.95 -19 57 47.9 19.0   704 – Lincoln Laboratory ETS, New Mexico MPS 5659
1999 07 14.19709 17 01 22.68 -19 57 39.2 18.7   704 – Lincoln Laboratory ETS, New Mexico MPS 5659
1999 07 14.20990 17 01 22.57 -19 57 32.1 18.9   704 – Lincoln Laboratory ETS, New Mexico MPS 5659
1999 07 14.22266 17 01 22.41 -19 57 25.3 17.9   704 – Lincoln Laboratory ETS, New Mexico MPS 5659
1999 07 16.16700 17 01 11.85 -19 39 17.5 18.8   704 – Lincoln Laboratory ETS, New Mexico MPS 5659
1999 07 16.17936 17 01 11.69 -19 39 11.0 18.7   704 – Lincoln Laboratory ETS, New Mexico MPS 5659
1999 07 16.19174 17 01 11.67 -19 39 04.5 18.4   704 – Lincoln Laboratory ETS, New Mexico MPS 5659
1999 07 16.20437 17 01 11.57 -19 38 57.2 18.7   704 – Lincoln Laboratory ETS, New Mexico MPS 5659
1999 07 16.21673 17 01 11.50 -19 38 50.9 18.4   704 – Lincoln Laboratory ETS, New Mexico MPS 5659
1999 07 19.16245 17 01 11.36 -19 12 53.1 18.3   704 – Lincoln Laboratory ETS, New Mexico MPS 5659
1999 07 19.18760 17 01 11.34 -19 12 40.3 18.5   704 – Lincoln Laboratory ETS, New Mexico MPS 5659
1999 07 19.20021 17 01 11.39 -19 12 34.0 18.7   704 – Lincoln Laboratory ETS, New Mexico MPS 5659
1999 07 19.21279 17 01 11.33 -19 12 27.6 18.7   704 – Lincoln Laboratory ETS, New Mexico MPS 5659
2003 05 25.51657 15 06 21.28 -30 10 51.5 17.7 V 428 – Reedy Creek MPS 80303
2003 05 25.53751 15 06 20.32 -30 10 36.1 17.9 V 428 – Reedy Creek MPS 80303
2003 05 26.55927 15 05 35.99 -29 57 29.1 17.6 V 428 – Reedy Creek MPS 80303
2003 05 26.66347 15 05 31.19 -29 56 07.4 18.1 V 428 – Reedy Creek MPS 80303
2003 06 25.24017 14 57 57.11 -23 41 05.9 18.9   704 – Lincoln Laboratory ETS, New Mexico MPS 81350
2003 06 25.25003 14 57 57.25 -23 41 00.6 19.0   704 – Lincoln Laboratory ETS, New Mexico MPS 81350
2003 06 25.26015 14 57 57.36 -23 40 53.4 18.7   704 – Lincoln Laboratory ETS, New Mexico MPS 81350
2003 07 07.19081 15 03 36.87 -21 48 09.4 19.7   644 – Palomar Mountain/NEAT MPS 82261
2003 07 07.21197 15 03 37.67 -21 47 58.8 19.7   644 – Palomar Mountain/NEAT MPS 82261
2003 07 07.23316 15 03 38.46 -21 47 48.5 19.2   644 – Palomar Mountain/NEAT MPS 82261
2004 11 03.38619 02 30 26.28 +28 33 33.1 19.5 R 703 – Catalina Sky Survey MPS 118248
2004 11 03.39508 02 30 25.77 +28 33 28.3 19.3 R 703 – Catalina Sky Survey MPS 118248
2004 11 03.40387 02 30 25.20 +28 33 25.0 19.4 R 703 – Catalina Sky Survey MPS 118248
2004 11 03.41421 02 30 24.62 +28 33 20.7 19.3 R 703 – Catalina Sky Survey MPS 118248
2004 11 09.37625 02 24 33.23 +27 47 59.1 19.4 R 703 – Catalina Sky Survey MPS 119193
2004 11 09.38998 02 24 32.45 +27 47 52.1 19.1 R 703 – Catalina Sky Survey MPS 119193
2004 11 09.40353 02 24 31.71 +27 47 44.5 19.7 R 703 – Catalina Sky Survey MPS 119193
2004 11 09.41712 02 24 30.88 +27 47 39.0 20.2 R 703 – Catalina Sky Survey MPS 119193
2005 12 01.42519 07 52 18.69 +16 16 09.8 20.5 V G96 – Mt. Lemmon Survey MPS 151784
2005 12 01.43331 07 52 18.48 +16 16 07.8 20.6 V G96 – Mt. Lemmon Survey MPS 151784
2005 12 01.44139 07 52 18.26 +16 16 07.6 20.9 V G96 – Mt. Lemmon Survey MPS 151784
2005 12 01.44943 07 52 18.04 +16 16 05.9 20.9 V G96 – Mt. Lemmon Survey MPS 151784
2005 12 31.28761 07 30 37.12 +15 21 47.8   691 – Steward Observatory, Kitt Peak-Spacewatch MPS 157530
2005 12 31.30496 07 30 36.08 +15 21 46.3   691 – Steward Observatory, Kitt Peak-Spacewatch MPS 157530
2005 12 31.32228 07 30 35.05 +15 21 45.4   691 – Steward Observatory, Kitt Peak-Spacewatch MPS 157530
2007 02 23.72273 13 59 51.97 -29 30 22.2 19.6 V E12 – Siding Spring Survey MPS 201404
2007 02 23.73660 13 59 52.40 -29 30 29.4 20.4 V E12 – Siding Spring Survey MPS 201404
2007 02 23.75036 13 59 52.76 -29 30 35.4 19.6 V E12 – Siding Spring Survey MPS 201404
2007 03 14.57282 14 04 22.11 -31 33 42.7 19.6 V E12 – Siding Spring Survey MPS 202844
2007 03 14.58263 14 04 22.04 -31 33 46.2 19.0 V E12 – Siding Spring Survey MPS 202844
2007 03 14.59245 14 04 21.97 -31 33 49.2 18.9 V E12 – Siding Spring Survey MPS 202844
2007 03 14.60227 14 04 21.93 -31 33 52.0 19.8 V E12 – Siding Spring Survey MPS 202844
2007 03 23.75359 14 02 33.46 -32 06 43.0 19.1 V E12 – Siding Spring Survey MPS 204456
2007 03 23.76358 14 02 33.28 -32 06 44.6 18.8 V E12 – Siding Spring Survey MPS 204456
2007 03 23.77354 14 02 33.00 -32 06 45.9 19.0 V E12 – Siding Spring Survey MPS 204456
2007 03 23.78353 14 02 32.82 -32 06 47.0 18.8 V E12 – Siding Spring Survey MPS 204456
2007 04 11.64142 13 51 09.86 -31 54 07.2 18.1 V E12 – Siding Spring Survey MPS 206743
2007 04 11.66765 13 51 08.49 -31 54 00.9 18.4 V E12 – Siding Spring Survey MPS 206743
2007 04 11.68075 13 51 07.84 -31 53 57.5 18.8 V E12 – Siding Spring Survey MPS 206743
2007 04 17.59963 13 46 04.33 -31 24 03.2 18.3 V E12 – Siding Spring Survey MPS 207918
2007 04 17.60924 13 46 03.79 -31 23 59.6 18.1 V E12 – Siding Spring Survey MPS 207918
2007 04 17.61880 13 46 03.21 -31 23 56.2 18.0 V E12 – Siding Spring Survey MPS 207918
2007 04 17.62838 13 46 02.71 -31 23 52.7 18.1 V E12 – Siding Spring Survey MPS 207918
2007 05 13.57692 13 25 36.98 -27 10 11.1 18.2 V E12 – Siding Spring Survey MPS 210042
2007 05 13.58634 13 25 36.66 -27 10 04.2 18.5 V E12 – Siding Spring Survey MPS 210042
2007 05 13.59575 13 25 36.37 -27 09 56.7 18.1 V E12 – Siding Spring Survey MPS 210042
2007 05 13.60524 13 25 36.04 -27 09 50.3 18.4 V E12 – Siding Spring Survey MPS 210042
2007 06 15.49218 13 26 52.11 -21 11 13.1 18.6 V E12 – Siding Spring Survey MPS 211350
2007 06 15.50160 13 26 52.44 -21 11 07.5 19.0 V E12 – Siding Spring Survey MPS 211350
2007 06 15.51095 13 26 52.80 -21 11 03.2 18.8 V E12 – Siding Spring Survey MPS 211350
2007 06 15.52046 13 26 53.08 -21 10 57.5 18.5 V E12 – Siding Spring Survey MPS 211350
2007 07 17.46101 14 00 47.44 -18 41 10.3 19.6 V E12 – Siding Spring Survey MPS 212238
2007 07 17.46924 14 00 48.13 -18 41 09.0 19.3 V E12 – Siding Spring Survey MPS 212238
2007 07 17.47742 14 00 48.88 -18 41 08.9 19.5 V E12 – Siding Spring Survey MPS 212238
2007 07 17.48564 14 00 49.53 -18 41 08.0 19.5 V E12 – Siding Spring Survey MPS 212238
2007 08 09.39271 14 38 36.74 -18 39 09.7 19.4 V E12 – Siding Spring Survey MPS 212997
2007 08 09.40093 14 38 37.64 -18 39 10.5 19.5 V E12 – Siding Spring Survey MPS 212997
2007 08 09.41683 14 38 39.40 -18 39 11.9 19.7 V E12 – Siding Spring Survey MPS 212997
2008 10 10.28104 02 10 59.62 +29 27 57.1 20.4 V 703 – Catalina Sky Survey MPS 260145
2008 10 10.29188 02 10 58.90 +29 27 54.9 20.5 V 703 – Catalina Sky Survey MPS 260145
2008 10 10.30288 02 10 58.36 +29 27 50.9 20.8 V 703 – Catalina Sky Survey MPS 260145
2008 10 10.31373 02 10 57.64 +29 27 48.9 20.2 V 703 – Catalina Sky Survey MPS 260145
2008 10 10.33127 02 10 56.78 +29 27 45.2 20.0 V 703 – Catalina Sky Survey MPS 260145
2008 10 10.34054 02 10 56.17 +29 27 41.6 19.8 V 703 – Catalina Sky Survey MPS 260145
2008 10 10.34972 02 10 55.63 +29 27 39.3 19.9 V 703 – Catalina Sky Survey MPS 260145
2008 10 10.35895 02 10 55.02 +29 27 37.9 20.7 V 703 – Catalina Sky Survey MPS 260145
2008 10 10.36873 02 10 54.62 +29 27 34.7 20.4 V 703 – Catalina Sky Survey MPS 260145
2008 10 10.37738 02 10 54.12 +29 27 31.8 20.5 V 703 – Catalina Sky Survey MPS 260145
2008 10 10.38595 02 10 53.68 +29 27 31.1 20.7 V 703 – Catalina Sky Survey MPS 260145
2008 10 10.39452 02 10 53.18 +29 27 27.5 20.1 V 703 – Catalina Sky Survey MPS 260145
2008 10 30.30561 01 51 30.49 +27 17 37.2 19.5 V 703 – Catalina Sky Survey MPS 262873
